Cloud_Cover
5 78 72 69 68 22 100 21 6 0 0 4 4 0 0 0 0 2 0 0 0 4 5 5 5 5 5 6 14 98 94 100 85 100 98 100 100 100 100 100 100 90 100 100 100 100 100 94 98
1 5 47 35 80 32 55 95 8 3 1 2 4 0 0 0 0 0 2 1 0 1 4 16 63 5 17 100 96 24 86 63 5 33 6 52 100 100 100 99 100 98 100 100 100 100 98 98 22
4 5 40 100 94 88 74 78 91 32 4 4 4 0 0 0 0 0 3 5 1 0 0 5 18 60 88 21 98 5 21 14 16 37 5 5 7 9 98 100 100 100 100 100 100 100 98 97 39
5 7 72 63 100 98 100 100 100 100 56 37 4 0 0 0 0 0 0 4 0 0 0 0 5 4 0 44 21 4 0 0 1 0 4 5 5 5 5 81 100 100 100 100 100 100 100 100 82
1 5 23 58 26 46 23 84 100 100 93 51 1 0 0 0 0 0 2 1 1 4 3 0 1 10 5 6 2 0 0 0 0 0 0 0 0 1 5 11 100 100 100 100 100 100 100 100 100
5 12 95 85 76 91 21 3 100 76 100 5 0 0 0 0 0 2 52 4 77 97 52 7 4 4 68 5 5 0 0 0 0 0 0 0 0 0 5 12 71 100 100 100 100 100 100 100 100
0 0 25 98 35 81 37 21 100 28 1 0 0 0 0 0 0 0 2 13 100 83 100 82 5 0 5 0 0 0 0 0 0 0 0 0 0 0 2 34 80 100 100 100 100 100 100 100 100
0 0 1 30 1 36 5 47 5 73 0 5 3 0 3 0 0 3 5 26 52 100 100 36 7 5 3 0 0 0 0 0 0 0 0 5 0 0 5 10 99 100 96 100 100 100 100 100 100
4 4 4 9 83 53 7 10 3 2 0 0 0 5 3 0 0 8 46 100 99 100 100 13 18 22 16 14 0 0 0 0 0 0 0 47 22 4 0 0 18 97 98 100 100 100 94 100 100
0 5 69 80 4 97 58 35 27 4 8 79 41 0 0 0 0 0 8 19 1 11 8 33 11 17 15 0 1 17 21 18 19 5 5 45 27 36 5 5 6 98 38 100 100 100 100 100 100
0 5 74 33 96 2 4 3 5 0 8 8 97 4 0 0 0 0 0 2 1 0 0 0 0 0 0 19 26 35 34 100 100 100 8 6 95 94 36 3 34 100 100 100 100 100 99 100 100
0 0 3 5 80 35 40 8 5 5 0 2 0 0 1 82 5 0 0 0 0 0 0 0 0 0 1 18 19 100 53 100 99 96 94 100 74 80 100 6 6 100 100 100 100 76 99 95 100
0 0 0 5 38 5 0 83 48 18 0 0 2 1 53 100 97 0 2 21 26 0 0 0 0 0 0 4 33 33 80 45 70 100 100 100 30 77 37 1 7 99 100 98 100 84 80 84 100
0 0 0 0 2 1 1 35 0 5 0 3 100 100 100 100 100 53 5 10 100 11 0 0 0 0 0 0 0 60 38 100 100 100 100 83 85 100 98 29 3 64 100 100 81 98 82 53 59
0 0 0 0 0 0 3 4 0 4 44 95 100 100 100 100 100 98 96 95 98 31 0 0 0 0 0 0 0 0 12 78 100 100 100 100 69 10 28 5 5 68 100 79 97 100 56 80 100
0 0 0 0 8 100 9 16 0 1 21 99 100 100 100 100 100 100 100 100 100 100 100 14 67 84 8 0 2 4 0 7 83 100 100 100 39 14 9 9 7 5 43 84 91 100 100 20 99
0 0 0 0 98 98 55 85 0 3 98 100 100 100 100 100 100 100 100 100 100 100 100 69 93 35 10 0 21 100 5 2 3 22 100 100 53 78 40 16 1 0 7 99 100 100 100 100 97
0 0 0 0 13 100 99 62 70 0 67 100 100 100 100 100 100 100 100 100 100 100 100 100 47 24 74 95 34 40 93 100 100 100 97 100 100 5 99 22 2 0 5 94 100 100 100 98 93
0 0 0 0 11 100 100 100 100 1 29 41 100 100 100 100 100 100 100 100 100 100 100 100 93 62 36 79 24 10 69 94 100 100 64 100 92 97 5 14 23 8 4 100 100 100 100 100 86
4 7 2 0 0 1 0 0 5 56 66 99 98 99 100 100 100 100 100 100 100 100 100 100 100 99 22 5 0 1 1 0 0 3 95 99 93 100 56 82 5 7 17 9 100 100 100 100 100
5 7 61 16 3 2 0 0 0 93 6 5 15 99 100 100 100 100 100 100 100 100 100 100 100 100 100 4 1 0 4 0 6 1 5 14 7 38 55 24 21 3 11 11 100 98 100 100 100
0 0 1 8 5 0 0 0 0 5 3 1 1 54 100 100 100 100 100 100 100 100 100 100 100 100 100 57 1 0 0 2 4 22 5 3 5 5 10 15 30 5 16 5 51 100 100 100 100
7 5 0 0 0 0 0 0 0 0 0 0 6 96 100 100 100 100 100 100 100 100 100 100 100 100 100 5 4 0 0 7 9 19 8 4 5 5 5 15 4 6 20 6 6 100 100 100 100
96 97 2 0 0 0 0 0 0 5 5 3 3 96 100 100 100 100 100 100 100 100 100 100 53 100 98 4 0 0 0 2 17 5 11 29 17 11 5 5 5 56 24 87 79 22 96 100 100
100 42 20 0 0 0 0 0 0 1 2 35 0 26 100 100 100 100 100 99 100 100 100 100 100 100 23 0 0 0 0 4 46 43 30 11 5 22 13 5 18 22 72 66 96 37 93 100 100
99 42 0 0 0 0 0 0 0 0 3 94 30 49 91 100 100 100 100 81 100 100 100 100 100 62 5 0 1 0 0 13 34 40 38 18 4 5 3 4 4 10 15 92 85 100 100 100 100
13 0 0 0 0 0 0 1 73 4 8 98 100 96 83 95 32 92 67 5 44 10 0 3 4 5 3 0 3 0 0 5 13 15 7 14 7 5 5 5 4 4 12 32 100 100 100 100 100
0 0 0 0 0 0 0 18 0 72 98 100 100 100 100 100 100 77 28 23 0 0 0 0 7 5 0 0 5 2 5 5 5 5 13 19 92 10 74 9 6 9 16 17 93 100 100 100 100
0 0 0 0 0 0 0 91 34 100 100 100 100 100 100 100 100 100 100 100 94 1 0 0 8 5 4 4 0 0 5 5 26 7 5 5 5 22 16 63 50 45 23 5 97 100 100 100 100
0 0 2 0 0 0 0 0 30 1 48 100 100 100 100 100 100 100 100 100 98 98 4 0 5 5 0 0 0 0 9 45 19 10 5 75 23 75 93 100 100 98 86 100 100 100 100 100 100